Volver al catálogo

OPS 4682 DEB

ActivoPO
NORAD 29061·DEBRIS·🇺🇸 United States

Lanzado Apr 3, 1965 desde Vandenberg Space Force Base

Loading…

Próximos Pases (próximas 24 horas)

TLE

ActualizadoSource: Space-Track

Época: Sep 13, 2026, 01:30 UTC

1 29061U 65027BL  26256.06256191  .00000346  00000-0  12134-2 0  9995
2 29061  90.2596  19.6471 0030194 349.8550  63.1112 12.94709268239770

Sigue OPS 4682 DEB en tiempo real con AllMySat

Download on the App Store